Terminal Aerodrome Forecast
Issued by NWS

Home | Current Version | Previous Version | Text Only | Print | Product List | Glossary On
Versions: 1 2 3 4 5 6 7 8 9 10 11 12 13 14 15 16 17 18 19 20 21 22 23 24 25 26 27 28 29 30 31 32 33 34 35 36 37 38 39 40 41 42 43 44 45 46 47 48 49 50
000
FTUS41 KCTP 262206 AAC
TAFLNS
TAF AMD
KLNS 262206Z 2622/2718 03012KT 1SM -SN BKN018 OVC020
      TEMPO 2622/2701 3/4SM -SN
     FM270200 06012KT 2SM -SN BR BKN015 OVC025
     FM270500 03012G22KT 3SM -SN BR OVC012
     FM271200 33013KT P6SM SN OVC001
     FM271300 33013KT P6SM BKN020 OVC024=

USA.gov is the U.S. government's official web portal to all federal, state and local government web resources and services.